Regional Weather Roundup
Issued by NWS

Home | Current Version | Previous Version | Graphics & Text | Print | Product List | Glossary On
Versions: 1 2 3 4 5 6 7 8 9 10 11 12 13 14 15 16 17 18 19 20 21 22 23 24 25 26 27 28 29 30 31 32 33 34 35 36 37 38 39 40 41 42 43 44 45 46 47 48 49 50
000
ASUS43 KFSD 261710
RWRSD

WEATHER ROUNDUP FOR SOUTH DAKOTA
NATIONAL WEATHER SERVICE SIOUX FALLS SD
1200 PM CDT SAT JUL 26 2014

NOTE: "FAIR" INDICATES FEW OR NO CLOUDS BELOW 12,000 FEET WITH NO
SIGNIFICANT WEATHER AND/OR OBSTRUCTIONS TO VISIBILITY.


SDZ001>005-009-010-012>017-261800-
NORTHWEST AND NORTH CENTRAL SOUTH DAKOTA

CITY           SKY/WX    TMP DP  RH WIND       PRES   REMARKS
BUFFALO          N/A     73  45  36 W23G32    30.01R
FAITH            N/A     78  47  33 NW24G32   30.01R
MOBRIDGE       SUNNY     78  52  40 NW14G22   29.91S
$$

SDZ012>016-024>037-041>051-057-063-072>074-261800-
SOUTHWEST AND SOUTH CENTRAL SOUTH DAKOTA

CITY           SKY/WX    TMP DP  RH WIND       PRES   REMARKS
RAPID CTY ARPT SUNNY     76  46  34 N18G29    30.07S
PIERRE         SUNNY     80  54  40 N16G23    29.95R
CUSTER         SUNNY     77  34  21 VRB7      30.19R
ELLSWORTH AFB  SUNNY     76  46  34 N16G23    30.08R
PHILIP         SUNNY     83  45  26 N17G24    30.00R
PINE RIDGE     SUNNY     76  59  55 N9        30.08R
WINNER         CLOUDY    69  62  78 NE5       29.98R
$$

SDZ004>011-016>023-039-040-261800-
NORTHEAST SOUTH DAKOTA

CITY           SKY/WX    TMP DP  RH WIND       PRES   REMARKS
ABERDEEN       SUNNY     82  54  37 NW14      29.88R
WATERTOWN      PTSUNNY   77  66  68 W18       29.90R
SISSETON         N/A     81  67  62 W10       29.83S
$$

SDZ017-020-022-023-036>040-048>070-261800-
SOUTHEAST SOUTH DAKOTA

CITY           SKY/WX    TMP DP  RH WIND       PRES   REMARKS
SIOUX FALLS    LGT RAIN  72  70  93 CALM      29.95R FOG
HURON          MOSUNNY   77  63  61 W9        29.91S
CHAMBERLAIN    SUNNY     74  60  62 CALM      29.95R
MITCHELL       CLOUDY    72  67  84 S13       29.91S
YANKTON        CLOUDY    70  66  88 CALM      29.92F
$$

ABBREVIATIONS USED IN REMARKS
   TC - TEMPERATURE IN CELSIUS
  WCI - WIND CHILL INDEX
   HX - HEAT INDEX
  VSB - VISIBILITY




USA.gov is the U.S. government's official web portal to all federal, state and local government web resources and services.